Location: Campavaglio
(41.1333°N, 9.2333°E)
Time: 23:28:37
(UTC+00:00)

SL-16 R/B - Pass Details

Date: 07 June 2020
Orbit: 986 x 1006 km, 99.5° (Epoch: 05 July)

Event Time Altitude Azimuth Distance (km) Brightness Sun altitude
Exits shadow 00:10:23 16° 122° (ESE) 2,326 4.3 -25.1°
Maximum altitude 00:14:37 36° 65° (ENE) 1,530 3.8 -24.9°
Drops below altitude 10° 00:20:08 10° 2° (N) 2,760 5.9 -24.7°
Sets 00:22:49 0° 354° (N) 3,715 6.7 -24.5°
